Location: ???
(60.6398°N, 46.9067°E)
Time: 19:39:17
(UTC+00:00)

Cosmos 1340 - Pass Details

Date: 08 December 2019
Orbit: 502 x 506 km, 81.2° (Epoch: 17 January)

Event Time Altitude Azimuth Distance (km) Brightness Sun altitude
Rises 13:31:52 0° 341° (NNW) 2,624 6.2 -11.3°
Reaches altitude 10° 13:34:01 10° 337° (NNW) 1,735 5.3 -11.6°
Maximum altitude 13:37:46 59° 258° (WSW) 595 3.3 -12.0°
Drops below altitude 10° 13:41:29 10° 179° (S) 1,723 5.7 -12.4°
Sets 13:43:37 0° 176° (S) 2,604 6.5 -12.6°
